TURKSAT 3A

Last updated on Sun Apr 12 2026 00:02:51 GMT+0000 (Coordinated Universal Time)

1 33056U 08030B 26101.45767506 .00000148 00000+0 00000+0 0 9999 2 33056 0.0637 74.6858 0005405 331.5191 0.2075 1.00272669 51687
UTC large
Height (km)
Speed (km/s)
/
Latitude / Longitude
Inclination (degrees)
Orbital Period (minutes)
Azimuth
Elevation
Range (km)
Doppler Factor

Next 0 passes for location: London (51.5072 / 0.1276)

Sorry there are no passes over London.
TURKSAT 3A